Time,TemperatureF,DewpointF,PressureIn,WindDirection,WindDirectionDegrees,WindSpeedMPH,WindSpeedGustMPH,Humidity,HourlyPrecipIn,Conditions,Clouds,dailyrainin,SoftwareType,DateUTC
2017-05-28 00:02:00,72.5,26.0,29.90,NE,45,2.5,2.5,18,0.00,,,0.00,WUHU216HW,2017-05-28 07:02:00,
2017-05-28 00:07:00,72.4,25.8,29.90,NNE,23,1.1,2.5,18,0.00,,,0.00,WUHU216HW,2017-05-28 07:07:00,
2017-05-28 00:12:00,72.2,27.3,29.89,North,0,1.8,2.5,19,0.00,,,0.00,WUHU216HW,2017-05-28 07:12:00,
2017-05-28 00:17:00,72.2,25.7,29.89,NE,45,1.3,2.7,18,0.00,,,0.00,WUHU216HW,2017-05-28 07:17:00,
2017-05-28 00:22:00,72.0,25.6,29.89,NNE,23,1.1,2.7,18,0.00,,,0.00,WUHU216HW,2017-05-28 07:22:00,
2017-05-28 00:27:00,72.0,27.2,29.89,NNE,23,0.4,1.6,19,0.00,,,0.00,WUHU216HW,2017-05-28 07:27:00,
2017-05-28 00:32:00,72.0,27.2,29.89,NNE,23,1.1,1.3,19,0.00,,,0.00,WUHU216HW,2017-05-28 07:32:00,
2017-05-28 00:37:00,71.6,26.8,29.89,NNE,23,1.1,1.8,19,0.00,,,0.00,WUHU216HW,2017-05-28 07:37:00,
2017-05-28 00:42:00,71.6,28.4,29.89,NNE,23,0.9,1.8,20,0.00,,,0.00,WUHU216HW,2017-05-28 07:42:00,
2017-05-28 00:47:00,71.3,26.6,29.89,NNE,23,1.1,1.6,19,0.00,,,0.00,WUHU216HW,2017-05-28 07:47:00,
2017-05-28 00:52:00,70.9,26.3,29.89,NNE,23,0.7,1.6,19,0.00,,,0.00,WUHU216HW,2017-05-28 07:52:00,
2017-05-28 00:57:00,70.7,26.1,29.89,NNE,23,1.8,1.8,19,0.00,,,0.00,WUHU216HW,2017-05-28 07:57:00,
2017-05-28 01:02:00,70.6,28.6,29.89,NNE,23,0.9,2.2,21,0.00,,,0.00,WUHU216HW,2017-05-28 08:02:00,
2017-05-28 01:07:00,70.2,28.3,29.89,NNE,23,1.1,2.2,21,0.00,,,0.00,WUHU216HW,2017-05-28 08:07:00,
2017-05-28 01:12:00,70.2,28.3,29.89,NNE,23,1.3,1.6,21,0.00,,,0.00,WUHU216HW,2017-05-28 08:12:00,
2017-05-28 01:17:00,70.0,28.2,29.89,North,0,0.2,1.6,21,0.00,,,0.00,WUHU216HW,2017-05-28 08:17:00,
2017-05-28 01:22:00,69.8,28.0,29.89,North,0,0.7,1.6,21,0.00,,,0.00,WUHU216HW,2017-05-28 08:22:00,
2017-05-28 01:27:00,69.7,28.9,29.89,North,0,1.1,1.8,22,0.00,,,0.00,WUHU216HW,2017-05-28 08:27:00,
2017-05-28 01:32:00,69.5,27.7,29.89,North,0,0.7,1.8,21,0.00,,,0.00,WUHU216HW,2017-05-28 08:32:00,
2017-05-28 01:37:00,69.3,27.5,29.89,North,0,0.9,1.6,21,0.00,,,0.00,WUHU216HW,2017-05-28 08:37:00,
2017-05-28 01:42:00,69.1,27.5,29.89,North,0,0.0,1.6,21,0.00,,,0.00,WUHU216HW,2017-05-28 08:42:00,
2017-05-28 01:47:00,68.9,27.3,29.89,North,0,1.1,1.3,21,0.00,,,0.00,WUHU216HW,2017-05-28 08:47:00,
2017-05-28 01:52:00,68.8,28.2,29.89,NNE,23,0.9,2.0,22,0.00,,,0.00,WUHU216HW,2017-05-28 08:52:00,
2017-05-28 01:53:00,68.8,28.2,29.89,NNE,23,1.3,2.0,22,0.00,,,0.00,WUHU216HW,2017-05-28 08:53:00,
2017-05-28 01:58:00,68.6,28.0,29.89,NNE,23,0.0,2.0,22,0.00,,,0.00,WUHU216HW,2017-05-28 08:58:00,
2017-05-28 02:03:00,68.4,27.8,29.89,NW,315,1.1,1.6,22,0.00,,,0.00,WUHU216HW,2017-05-28 09:03:00,
2017-05-28 02:08:00,68.4,27.8,29.89,NW,315,0.7,1.6,22,0.00,,,0.00,WUHU216HW,2017-05-28 09:08:00,
2017-05-28 02:13:00,68.4,27.8,29.89,NW,315,0.0,1.3,22,0.00,,,0.00,WUHU216HW,2017-05-28 09:13:00,
2017-05-28 02:18:00,68.2,27.7,29.88,North,0,1.6,1.8,22,0.00,,,0.00,WUHU216HW,2017-05-28 09:18:00,
2017-05-28 02:23:00,68.0,27.5,29.88,East,90,0.9,1.8,22,0.00,,,0.00,WUHU216HW,2017-05-28 09:23:00,
2017-05-28 02:28:00,67.9,27.4,29.88,ENE,68,0.7,1.6,22,0.00,,,0.00,WUHU216HW,2017-05-28 09:28:00,
2017-05-28 02:33:00,67.7,27.2,29.88,NW,315,1.3,1.3,22,0.00,,,0.00,WUHU216HW,2017-05-28 09:33:00,
2017-05-28 02:38:00,67.7,28.3,29.88,NW,315,0.0,1.3,23,0.00,,,0.00,WUHU216HW,2017-05-28 09:38:00,
2017-05-28 02:43:00,67.5,28.1,29.88,NNE,23,1.1,1.3,23,0.00,,,0.00,WUHU216HW,2017-05-28 09:43:00,
2017-05-28 02:48:00,67.3,27.9,29.88,NNE,23,0.0,1.1,23,0.00,,,0.00,WUHU216HW,2017-05-28 09:48:00,
2017-05-28 02:53:00,67.1,27.7,29.88,NNE,23,0.0,1.1,23,0.00,,,0.00,WUHU216HW,2017-05-28 09:53:00,
2017-05-28 02:58:00,67.1,27.7,29.88,North,0,0.4,0.9,23,0.00,,,0.00,WUHU216HW,2017-05-28 09:58:00,
2017-05-28 03:03:00,67.0,27.6,29.88,North,0,0.0,1.1,23,0.00,,,0.00,WUHU216HW,2017-05-28 10:03:00,
2017-05-28 03:08:00,66.8,27.5,29.88,North,0,0.0,1.1,23,0.00,,,0.00,WUHU216HW,2017-05-28 10:08:00,
2017-05-28 03:13:00,66.8,27.5,29.88,North,0,0.0,0.0,23,0.00,,,0.00,WUHU216HW,2017-05-28 10:13:00,
2017-05-28 03:18:00,66.6,28.3,29.88,North,0,0.0,0.0,24,0.00,,,0.00,WUHU216HW,2017-05-28 10:18:00,
2017-05-28 03:23:00,66.2,28.0,29.88,North,0,0.0,0.0,24,0.00,,,0.00,WUHU216HW,2017-05-28 10:23:00,
2017-05-28 03:28:00,65.9,27.6,29.88,NE,45,0.0,1.8,24,0.00,,,0.00,WUHU216HW,2017-05-28 10:28:00,
2017-05-28 03:33:00,65.5,27.4,29.88,NE,45,0.0,1.8,24,0.00,,,0.00,WUHU216HW,2017-05-28 10:33:00,
2017-05-28 03:38:00,65.3,26.2,29.88,ENE,68,1.1,1.3,23,0.00,,,0.00,WUHU216HW,2017-05-28 10:38:00,
2017-05-28 03:43:00,65.0,25.9,29.88,North,0,1.6,1.6,23,0.00,,,0.00,WUHU216HW,2017-05-28 10:43:00,
2017-05-28 03:48:00,65.0,26.9,29.88,North,0,0.0,1.8,24,0.00,,,0.00,WUHU216HW,2017-05-28 10:48:00,
2017-05-28 03:53:00,65.0,26.9,29.88,North,0,1.1,1.8,24,0.00,,,0.00,WUHU216HW,2017-05-28 10:53:00,
2017-05-28 03:58:00,65.0,26.9,29.88,North,0,0.4,1.1,24,0.00,,,0.00,WUHU216HW,2017-05-28 10:58:00,
2017-05-28 04:03:00,64.8,26.7,29.88,NW,315,1.1,1.3,24,0.00,,,0.00,WUHU216HW,2017-05-28 11:03:00,
2017-05-28 04:08:00,64.6,27.6,29.89,NE,45,0.0,2.5,25,0.00,,,0.00,WUHU216HW,2017-05-28 11:08:00,
2017-05-28 04:13:00,64.4,27.5,29.89,NNE,23,0.0,2.5,25,0.00,,,0.00,WUHU216HW,2017-05-28 11:13:00,
2017-05-28 04:18:00,64.4,27.5,29.89,NNE,23,0.0,0.9,25,0.00,,,0.00,WUHU216HW,2017-05-28 11:18:00,
2017-05-28 04:23:00,64.3,27.3,29.89,NNE,23,0.0,0.9,25,0.00,,,0.00,WUHU216HW,2017-05-28 11:23:00,
2017-05-28 04:28:00,64.3,27.3,29.89,NNE,23,0.0,0.0,25,0.00,,,0.00,WUHU216HW,2017-05-28 11:28:00,
2017-05-28 04:33:00,64.1,28.2,29.89,NNE,23,0.0,0.0,26,0.00,,,0.00,WUHU216HW,2017-05-28 11:33:00,
2017-05-28 04:34:00,64.1,27.2,29.89,NNE,23,0.0,0.0,25,0.00,,,0.00,WUHU216HW,2017-05-28 11:34:00,
2017-05-28 04:39:00,63.9,27.0,29.89,NNE,23,0.4,1.1,25,0.00,,,0.00,WUHU216HW,2017-05-28 11:39:00,
2017-05-28 04:44:00,63.7,26.8,29.89,WSW,248,1.1,1.1,25,0.00,,,0.00,WUHU216HW,2017-05-28 11:44:00,
2017-05-28 04:49:00,63.5,26.7,29.89,WSW,248,0.0,1.1,25,0.00,,,0.00,WUHU216HW,2017-05-28 11:49:00,
2017-05-28 04:54:00,63.2,26.4,29.89,NE,45,0.2,1.6,25,0.00,,,0.00,WUHU216HW,2017-05-28 11:54:00,
2017-05-28 04:59:00,63.0,28.2,29.89,NNE,23,0.0,1.6,27,0.00,,,0.00,WUHU216HW,2017-05-28 11:59:00,
2017-05-28 05:04:00,63.0,28.2,29.89,West,270,0.0,0.2,27,0.00,,,0.00,WUHU216HW,2017-05-28 12:04:00,
2017-05-28 05:09:00,62.8,28.0,29.90,West,270,0.0,0.0,27,0.00,,,0.00,WUHU216HW,2017-05-28 12:09:00,
2017-05-28 05:14:00,62.8,28.0,29.90,West,270,0.0,0.0,27,0.00,,,0.00,WUHU216HW,2017-05-28 12:14:00,
2017-05-28 05:19:00,62.8,28.0,29.90,West,270,0.0,0.0,27,0.00,,,0.00,WUHU216HW,2017-05-28 12:19:00,
2017-05-28 05:24:00,62.8,28.0,29.90,West,270,0.0,0.0,27,0.00,,,0.00,WUHU216HW,2017-05-28 12:24:00,
2017-05-28 05:29:00,62.8,28.0,29.90,West,270,0.0,0.0,27,0.00,,,0.00,WUHU216HW,2017-05-28 12:29:00,
2017-05-28 05:34:00,62.6,27.9,29.90,NNE,23,1.1,1.6,27,0.00,,,0.00,WUHU216HW,2017-05-28 12:34:00,
2017-05-28 05:39:00,62.5,27.7,29.90,NNE,23,1.6,2.0,27,0.00,,,0.00,WUHU216HW,2017-05-28 12:39:00,
2017-05-28 05:44:00,62.3,27.5,29.90,NE,45,2.5,2.5,27,0.00,,,0.00,WUHU216HW,2017-05-28 12:44:00,
2017-05-28 05:49:00,62.1,27.4,29.91,NE,45,0.9,2.5,27,0.00,,,0.00,WUHU216HW,2017-05-28 12:49:00,
2017-05-28 05:54:00,62.1,27.4,29.91,East,90,0.9,2.0,27,0.00,,,0.00,WUHU216HW,2017-05-28 12:54:00,
2017-05-28 05:59:00,62.3,28.5,29.91,NE,45,1.8,2.0,28,0.00,,,0.00,WUHU216HW,2017-05-28 12:59:00,
2017-05-28 06:04:00,62.5,28.7,29.91,ENE,68,0.7,2.0,28,0.00,,,0.00,WUHU216HW,2017-05-28 13:04:00,
2017-05-28 06:09:00,62.6,28.8,29.91,ENE,68,0.9,1.8,28,0.00,,,0.00,WUHU216HW,2017-05-28 13:09:00,
2017-05-28 06:14:00,63.0,29.2,29.91,ENE,68,0.0,1.6,28,0.00,,,0.00,WUHU216HW,2017-05-28 13:14:00,
2017-05-28 06:19:00,63.2,29.4,29.91,ENE,68,0.0,0.9,28,0.00,,,0.00,WUHU216HW,2017-05-28 13:19:00,
2017-05-28 06:24:00,63.5,30.6,29.92,ENE,68,0.0,0.0,29,0.00,,,0.00,WUHU216HW,2017-05-28 13:24:00,
2017-05-28 06:29:00,63.7,30.8,29.92,ENE,68,1.1,1.1,29,0.00,,,0.00,WUHU216HW,2017-05-28 13:29:00,
2017-05-28 06:34:00,64.4,31.4,29.92,SE,135,0.7,1.8,29,0.00,,,0.00,WUHU216HW,2017-05-28 13:34:00,
2017-05-28 06:39:00,65.3,33.2,29.92,ESE,113,0.0,1.8,30,0.00,,,0.00,WUHU216HW,2017-05-28 13:39:00,
2017-05-28 06:44:00,66.1,33.8,29.92,SE,135,1.8,1.8,30,0.00,,,0.00,WUHU216HW,2017-05-28 13:44:00,
2017-05-28 06:49:00,67.1,33.8,29.92,East,90,1.6,1.8,29,0.00,,,0.00,WUHU216HW,2017-05-28 13:49:00,
2017-05-28 06:50:00,67.3,33.9,29.92,SSE,158,0.4,1.8,29,0.00,,,0.00,WUHU216HW,2017-05-28 13:50:00,
2017-05-28 06:55:00,68.0,33.5,29.92,East,90,0.4,1.8,28,0.00,,,0.00,WUHU216HW,2017-05-28 13:55:00,
2017-05-28 07:00:00,68.9,34.3,29.92,East,90,0.4,1.8,28,0.00,,,0.00,WUHU216HW,2017-05-28 14:00:00,
2017-05-28 07:05:00,69.8,33.0,29.92,East,90,0.0,0.9,26,0.00,,,0.00,WUHU216HW,2017-05-28 14:05:00,
2017-05-28 07:10:00,70.7,33.9,29.92,East,90,0.0,0.4,26,0.00,,,0.00,WUHU216HW,2017-05-28 14:10:00,
2017-05-28 07:15:00,71.6,34.6,29.92,East,90,0.0,0.0,26,0.00,,,0.00,WUHU216HW,2017-05-28 14:15:00,
2017-05-28 07:20:00,72.4,33.1,29.92,East,90,0.0,0.0,24,0.00,,,0.00,WUHU216HW,2017-05-28 14:20:00,
2017-05-28 07:30:00,73.8,33.4,29.92,SSE,158,1.3,1.3,23,0.00,,,0.00,WUHU216HW,2017-05-28 14:30:00,
2017-05-28 07:35:00,74.9,33.3,29.92,SE,135,0.7,1.6,22,0.00,,,0.00,WUHU216HW,2017-05-28 14:35:00,
2017-05-28 07:40:00,75.6,33.8,29.92,SSW,203,2.0,2.0,22,0.00,,,0.00,WUHU216HW,2017-05-28 14:40:00,
2017-05-28 07:45:00,76.5,34.6,29.92,SE,135,1.1,2.0,22,0.00,,,0.00,WUHU216HW,2017-05-28 14:45:00,
2017-05-28 07:50:00,77.2,34.1,29.92,SSE,158,1.8,2.0,21,0.00,,,0.00,WUHU216HW,2017-05-28 14:50:00,
2017-05-28 07:55:00,77.9,34.8,29.93,SSE,158,1.8,2.0,21,0.00,,,0.00,WUHU216HW,2017-05-28 14:55:00,
2017-05-28 08:00:00,78.8,35.5,29.93,SSW,203,0.4,1.8,21,0.00,,,0.00,WUHU216HW,2017-05-28 15:00:00,
2017-05-28 08:05:00,79.4,33.2,29.93,SE,135,1.6,1.8,19,0.00,,,0.00,WUHU216HW,2017-05-28 15:05:00,
2017-05-28 08:10:00,80.1,35.6,29.93,SSE,158,0.9,1.8,20,0.00,,,0.00,WUHU216HW,2017-05-28 15:10:00,
2017-05-28 08:15:00,80.5,34.1,29.93,SW,225,0.9,1.6,19,0.00,,,0.00,WUHU216HW,2017-05-28 15:15:00,
2017-05-28 08:20:00,81.0,36.3,29.92,West,270,1.8,1.8,20,0.00,,,0.00,WUHU216HW,2017-05-28 15:20:00,
2017-05-28 08:25:00,81.5,35.0,29.93,West,270,0.4,1.8,19,0.00,,,0.00,WUHU216HW,2017-05-28 15:25:00,
2017-05-28 08:30:00,82.1,35.5,29.93,SW,225,1.1,1.8,19,0.00,,,0.00,WUHU216HW,2017-05-28 15:30:00,
2017-05-28 08:35:00,82.6,34.2,29.93,SW,225,0.7,1.8,18,0.00,,,0.00,WUHU216HW,2017-05-28 15:35:00,
2017-05-28 08:40:00,83.2,34.7,29.93,SW,225,1.6,1.8,18,0.00,,,0.00,WUHU216HW,2017-05-28 15:40:00,
2017-05-28 08:45:00,84.1,35.3,29.93,SSE,158,2.7,2.7,18,0.00,,,0.00,WUHU216HW,2017-05-28 15:45:00,
2017-05-28 08:50:00,84.6,34.0,29.92,South,180,0.4,2.7,17,0.00,,,0.00,WUHU216HW,2017-05-28 15:50:00,
2017-05-28 08:55:00,85.1,34.5,29.92,SSW,203,1.3,3.4,17,0.00,,,0.00,WUHU216HW,2017-05-28 15:55:00,
2017-05-28 09:00:00,85.3,34.7,29.92,SE,135,1.3,3.8,17,0.00,,,0.00,WUHU216HW,2017-05-28 16:00:00,
2017-05-28 09:05:00,86.0,35.2,29.92,SW,225,0.2,3.8,17,0.00,,,0.00,WUHU216HW,2017-05-28 16:05:00,
2017-05-28 09:06:00,86.0,33.5,29.92,South,180,0.4,2.9,16,0.00,,,0.00,WUHU216HW,2017-05-28 16:06:00,
2017-05-28 09:11:00,86.8,35.8,29.92,WSW,248,2.5,3.4,17,0.00,,,0.00,WUHU216HW,2017-05-28 16:11:00,
2017-05-28 09:16:00,86.9,34.3,29.92,West,270,2.0,3.4,16,0.00,,,0.00,WUHU216HW,2017-05-28 16:16:00,
2017-05-28 09:21:00,87.1,36.1,29.92,SSW,203,0.7,2.5,17,0.00,,,0.00,WUHU216HW,2017-05-28 16:21:00,
2017-05-28 09:26:00,87.7,36.6,29.92,SW,225,1.8,3.8,17,0.00,,,0.00,WUHU216HW,2017-05-28 16:26:00,
2017-05-28 09:31:00,88.2,37.0,29.92,SSW,203,3.6,4.5,17,0.00,,,0.00,WUHU216HW,2017-05-28 16:31:00,
2017-05-28 09:36:00,88.7,39.2,29.91,WSW,248,1.3,4.5,18,0.00,,,0.00,WUHU216HW,2017-05-28 16:36:00,
2017-05-28 09:41:00,89.3,37.9,29.91,South,180,1.8,3.6,17,0.00,,,0.00,WUHU216HW,2017-05-28 16:41:00,
2017-05-28 09:42:00,89.3,37.9,29.91,South,180,1.8,3.4,17,0.00,,,0.00,WUHU216HW,2017-05-28 16:42:00,
2017-05-28 09:47:00,89.6,36.4,29.91,SW,225,1.6,3.6,16,0.00,,,0.00,WUHU216HW,2017-05-28 16:47:00,
2017-05-28 09:52:00,90.0,36.7,29.91,SW,225,2.2,3.6,16,0.00,,,0.00,WUHU216HW,2017-05-28 16:52:00,
2017-05-28 09:57:00,90.4,37.0,29.91,SW,225,4.5,4.5,16,0.00,,,0.00,WUHU216HW,2017-05-28 16:57:00,
2017-05-28 10:02:00,90.7,37.3,29.91,WSW,248,3.1,4.9,16,0.00,,,0.00,WUHU216HW,2017-05-28 17:02:00,
2017-05-28 10:07:00,90.9,37.5,29.91,SW,225,2.0,4.9,16,0.00,,,0.00,WUHU216HW,2017-05-28 17:07:00,
2017-05-28 10:12:00,91.3,37.7,29.91,WSW,248,2.9,3.4,16,0.00,,,0.00,WUHU216HW,2017-05-28 17:12:00,
2017-05-28 10:17:00,91.3,37.7,29.91,WSW,248,2.2,3.8,16,0.00,,,0.00,WUHU216HW,2017-05-28 17:17:00,
2017-05-28 10:22:00,91.4,37.8,29.91,NW,315,3.6,3.8,16,0.00,,,0.00,WUHU216HW,2017-05-28 17:22:00,
2017-05-28 10:27:00,91.8,36.4,29.91,West,270,3.1,3.6,15,0.00,,,0.00,WUHU216HW,2017-05-28 17:27:00,
2017-05-28 10:32:00,92.2,38.3,29.91,SW,225,0.9,3.8,16,0.00,,,0.00,WUHU216HW,2017-05-28 17:32:00,
2017-05-28 10:37:00,92.7,37.1,29.90,SSW,203,2.5,4.0,15,0.00,,,0.00,WUHU216HW,2017-05-28 17:37:00,
2017-05-28 10:42:00,93.2,37.4,29.90,South,180,4.0,4.0,15,0.00,,,0.00,WUHU216HW,2017-05-28 17:42:00,
2017-05-28 10:47:00,93.6,37.7,29.90,NNW,338,1.8,4.0,15,0.00,,,0.00,WUHU216HW,2017-05-28 17:47:00,
2017-05-28 10:52:00,93.2,33.9,29.90,North,0,1.8,5.4,13,0.00,,,0.00,WUHU216HW,2017-05-28 17:52:00,
2017-05-28 10:57:00,92.9,33.7,29.90,South,180,4.0,5.4,13,0.00,,,0.00,WUHU216HW,2017-05-28 17:57:00,
2017-05-28 11:02:00,92.9,33.7,29.90,West,270,3.6,4.5,13,0.00,,,0.00,WUHU216HW,2017-05-28 18:02:00,
2017-05-28 11:07:00,93.4,34.0,29.90,SW,225,3.8,4.7,13,0.00,,,0.00,WUHU216HW,2017-05-28 18:07:00,
2017-05-28 11:12:00,93.8,34.4,29.89,West,270,5.8,5.8,13,0.00,,,0.00,WUHU216HW,2017-05-28 18:12:00,
2017-05-28 11:17:00,94.0,32.8,29.89,WSW,248,2.9,6.5,12,0.00,,,0.00,WUHU216HW,2017-05-28 18:17:00,
2017-05-28 11:22:00,94.1,34.7,29.89,West,270,3.1,6.5,13,0.00,,,0.00,WUHU216HW,2017-05-28 18:22:00,
2017-05-28 11:27:00,94.3,33.0,29.89,NW,315,5.1,5.1,12,0.00,,,0.00,WUHU216HW,2017-05-28 18:27:00,
2017-05-28 11:32:00,94.3,33.0,29.89,West,270,5.4,5.6,12,0.00,,,0.00,WUHU216HW,2017-05-28 18:32:00,
2017-05-28 11:37:00,94.3,33.0,29.89,West,270,5.4,5.8,12,0.00,,,0.00,WUHU216HW,2017-05-28 18:37:00,
2017-05-28 11:42:00,94.3,33.0,29.89,WSW,248,6.0,8.3,12,0.00,,,0.00,WUHU216HW,2017-05-28 18:42:00,
2017-05-28 11:47:00,94.5,33.1,29.89,SW,225,5.4,8.3,12,0.00,,,0.00,WUHU216HW,2017-05-28 18:47:00,
2017-05-28 11:52:00,94.5,33.1,29.89,WNW,293,5.4,6.0,12,0.00,,,0.00,WUHU216HW,2017-05-28 18:52:00,
2017-05-28 11:57:00,94.3,33.0,29.89,West,270,6.5,6.5,12,0.00,,,0.00,WUHU216HW,2017-05-28 18:57:00,
2017-05-28 12:02:00,94.1,32.9,29.89,West,270,2.5,6.5,12,0.00,,,0.00,WUHU216HW,2017-05-28 19:02:00,
2017-05-28 12:07:00,94.3,33.0,29.88,WNW,293,1.8,6.5,12,0.00,,,0.00,WUHU216HW,2017-05-28 19:07:00,
2017-05-28 12:12:00,94.3,33.0,29.88,WNW,293,4.7,7.6,12,0.00,,,0.00,WUHU216HW,2017-05-28 19:12:00,